Elmira, NY

10:55 AM EST on December 15, 2019 (GMT -0500)
Elmira-Corning Regional

Weather History for KELM - May, 2019

Change the Weather History Date:

Wednesday, May 29, 2019

  Actual Average Record
Temperature  
Mean Temperature 60 °F -  
Max Temperature 69 °F 74 °F 92 °F (1931)
Min Temperature 53 °F 47 °F 30 °F (2008)
Degree Days  
Heating Degree Days 4    
Growing Degree Days 10 (Base 50)    
Moisture  
Dew Point 54 °F    
Average Humidity 82    
Maximum Humidity 93    
Minimum Humidity 73    
Precipitation  
Precipitation 0.01 in - - ()
Sea Level Pressure  
Sea Level Pressure 29.73 in    
Wind  
Wind Speed 6 mph (ENE)    
Max Wind Speed 12 mph    
Max Gust Speed -    
Visibility 10 miles    
Events Rain    
Averages and records for this station are not official NWS values.
T = Trace of Precipitation, MM = Missing Value Source: NWS Daily Summary

Daily Weather History Graph

Daily Weather History Graph

Search for Another Location

Airport or City:

Astronomy

May. 29, 2019 Rise Set
Actual Time 5:35 AM EDT 8:34 PM EDT
Civil Twilight 5:02 AM EDT 9:08 PM EDT
Nautical Twilight 4:19 AM EDT 9:50 PM EDT
Astronomical Twilight 3:29 AM EDT 10:41 PM EDT
Moon 3:20 AM EDT (5/29) 3:34 PM EDT (5/29)
Length of Visible Light 16h 05m
Length of Day
14h 58m
Waning Crescent, 23% of the Moon is Illuminated
May 29
Waning Crescent
Jun 3
New
Jun 10
First Quarter
Jun 17
Full
Jun 25
Last Quarter

Hourly Weather History & Observations

Time (EDT) Temp. Dew Point Humidity Pressure Visibility Wind Dir Wind Speed Gust Speed Precip Events Conditions
12:04 AM 59.0 °F 54.0 °F 83% 29.73 in 10.0 mi ENE 9.2 mph - N/A   Overcast
12:53 AM 55.9 °F 52.0 °F 87% 29.73 in 10.0 mi ENE 11.5 mph - N/A   Overcast
1:21 AM 55.0 °F 51.1 °F 86% 29.75 in 10.0 mi ENE 8.1 mph - N/A   Overcast
1:53 AM 55.0 °F 50.0 °F 83% 29.73 in 10.0 mi NE 8.1 mph - N/A   Overcast
2:53 AM 54.0 °F 50.0 °F 86% 29.75 in 10.0 mi ENE 8.1 mph - N/A   Overcast
3:15 AM 54.0 °F 50.0 °F 86% 29.75 in 10.0 mi ENE 8.1 mph - N/A   Overcast
3:53 AM 54.0 °F 50.0 °F 86% 29.75 in 10.0 mi ENE 8.1 mph - N/A   Overcast
4:53 AM 53.1 °F 50.0 °F 89% 29.76 in 10.0 mi NE 6.9 mph - N/A   Overcast
5:53 AM 53.1 °F 50.0 °F 89% 29.78 in 10.0 mi ENE 3.5 mph - N/A   Overcast
6:10 AM 53.1 °F 50.0 °F 89% 29.79 in 10.0 mi ENE 4.6 mph - N/A   Overcast
6:53 AM 54.0 °F 50.0 °F 86% 29.79 in 10.0 mi NNE 3.5 mph - N/A   Overcast
7:53 AM 55.0 °F 50.0 °F 83% 29.76 in 10.0 mi East 8.1 mph - N/A   Overcast
8:06 AM 55.0 °F 50.0 °F 83% 29.76 in 10.0 mi East 4.6 mph - N/A   Overcast
8:53 AM 55.9 °F 48.9 °F 77% 29.77 in 10.0 mi Calm Calm - N/A   Overcast
9:53 AM 59.0 °F 51.1 °F 75% 29.74 in 10.0 mi Calm Calm - N/A   Overcast
10:53 AM 61.0 °F 53.1 °F 75% 29.74 in 10.0 mi ENE 3.5 mph - N/A   Overcast
11:53 AM 64.0 °F 55.0 °F 73% 29.74 in 10.0 mi NE 6.9 mph - N/A   Overcast
12:03 PM 64.0 °F 55.0 °F 73% 29.74 in 10.0 mi ENE 5.8 mph - N/A   Overcast
12:53 PM 64.9 °F 55.9 °F 73% 29.72 in 10.0 mi NNE 5.8 mph - N/A   Mostly Cloudy
1:39 PM 64.0 °F 55.9 °F 75% 29.70 in 10.0 mi NE 11.5 mph - N/A   Overcast
1:53 PM 63.0 °F 55.9 °F 78% 29.69 in 10.0 mi NNE 8.1 mph - 0.00 in Rain Light Rain
2:04 PM 63.0 °F 55.9 °F 78% 29.69 in 10.0 mi NNE 4.6 mph - 0.00 in   Overcast
2:53 PM 64.0 °F 57.9 °F 80% 29.68 in 10.0 mi Calm Calm - 0.01 in   Overcast
3:53 PM 66.0 °F 59.0 °F 78% 29.67 in 10.0 mi Calm Calm - 0.00 in   Overcast
4:53 PM 68.0 °F 60.1 °F 76% 29.67 in 10.0 mi Calm Calm - N/A   Mostly Cloudy
5:15 PM 66.9 °F 60.1 °F 79% 29.68 in 10.0 mi SSW 3.5 mph - N/A   Mostly Cloudy
5:53 PM 68.0 °F 60.1 °F 76% 29.69 in 10.0 mi NNE 4.6 mph - N/A   Overcast
6:53 PM 64.9 °F 57.0 °F 75% 29.71 in 10.0 mi East 10.4 mph - N/A   Overcast
7:53 PM 63.0 °F 57.0 °F 81% 29.70 in 10.0 mi East 6.9 mph - N/A   Mostly Cloudy
8:28 PM 62.1 °F 57.0 °F 84% 29.72 in 10.0 mi East 4.6 mph - N/A   Scattered Clouds
8:53 PM 62.1 °F 55.9 °F 80% 29.73 in 10.0 mi NE 3.5 mph - N/A   Clear
9:53 PM 57.0 °F 55.0 °F 93% 29.74 in 10.0 mi North 4.6 mph - N/A   Clear
10:53 PM 57.0 °F 55.0 °F 93% 29.75 in 10.0 mi Calm Calm - N/A   Mostly Cloudy
11:17 PM 57.0 °F 55.0 °F 93% 29.74 in 10.0 mi Calm Calm - N/A   Overcast
11:53 PM 57.9 °F 55.9 °F 93% 29.76 in 10.0 mi SE 3.5 mph - N/A   Overcast